Starlink 6143

operational
NORAD ID: 57133 Int'l Des: 2023-090 Owner: SPXS Country: US Constellation: starlink
LEOCIRCULAR

关于 Starlink 6143

正在加载描述...

实时位置

正在加载3D地球...

即将过境

高度历史

Altitude vs Time

uPlot chart will show altitude changes over time

两行轨道根数

1 57133U 23090AJ 25308.80266317 -.00000713 00000-0 -37677-4 0 9991
2 57133 43.0045 220.5331 0001291 269.9533 90.1161 15.02536702131580
Epoch: Nov 4, 2025 • Age: 11 hours

当前状态

高度 558.4 km
速度 7.58 km/s
星下点 6.39°N, 83.01°E
发射日期 Jun 23, 2023
运行时间 2.3 years
类型 internet

技术详情

分类 Payload
质量 305.00 kg
干质量 290.00 kg
总质量 305.00 kg
长度 0.20 m
直径 2.80 m
跨度 9.00 m
形状 Box + pan
制造商 SPXS
平台类型 Starlink
阶段状态 In Orbit
所有者/国家 SPXS/US

大型星座

Loading constellations...